Weather History for Istanbul, Turkey

Change the Weather History Date:

Thursday, October 11, 2012

  Actual Average Record
Temperature  
Mean Temperature 65 °F -  
Max Temperature 71 °F 63 °F 82 °F (1998)
Min Temperature 59 °F 52 °F 48 °F (2010)
Growing Degree Days 15 (Base 50)    
Moisture  
Dew Point 50 °F    
Average Humidity 58    
Maximum Humidity 77    
Minimum Humidity 32    
Precipitation  
Precipitation 0.00 in - - ()
Sea Level Pressure  
Sea Level Pressure 29.88 in    
Wind  
Wind Speed 6 mph ()    
Max Wind Speed 9 mph    
Max Gust Speed 23 mph    
Visibility 6.2 miles    
Events      
Averages and records for this station are not official NWS values.
T = Trace of Precipitation, MM = Missing Value Source: Averaged Metar Reports

Daily Weather History Graph

Daily Weather History Graph

Search for Another Location

Airport:

Trip Planner

Search our weather history database for the weather conditions in past years. The results will help you decide how hot, cold, wet, or windy it might be!

Date:

Astronomy

Oct. 11, 2012 Rise Set
Actual Time 7:12 AM EEST 6:30 PM EEST
Civil Twilight 6:44 AM EEST 6:57 PM EEST
Nautical Twilight 6:12 AM EEST 7:29 PM EEST
Astronomical Twilight 5:40 AM EEST 8:01 PM EEST
Moon 2:27 AM EEST (10/11) 3:57 PM EEST (10/11)
Length of Visible Light 12h 13m
Length of Day
11h 18m
Waning Crescent, 21% of the Moon is Illuminated
Oct 11
Waning Crescent
Oct 15
New
Oct 22
First Quarter
Oct 29
Full
Nov 7
Last Quarter

Hourly Weather History & Observations

Time (EEST) Temp. Dew Point Humidity Pressure Visibility Wind Dir Wind Speed Gust Speed Precip Events Conditions
12:20 AM 64.4 °F 50.0 °F 59% 29.89 in 6.2 mi NE 6.9 mph - N/A   Scattered Clouds
12:50 AM 64.4 °F 50.0 °F 59% 29.86 in 6.2 mi NE 5.8 mph - N/A   Scattered Clouds
1:20 AM 66.2 °F 50.0 °F 56% 29.86 in 6.2 mi Variable 6.9 mph - N/A   Scattered Clouds
1:50 AM 64.4 °F 50.0 °F 59% 29.86 in 6.2 mi Variable 4.6 mph - N/A   Scattered Clouds
2:20 AM 62.6 °F 50.0 °F 63% 29.86 in 6.2 mi North 5.8 mph - N/A   Scattered Clouds
2:50 AM 62.6 °F 50.0 °F 63% 29.86 in 6.2 mi North 4.6 mph - N/A   Scattered Clouds
3:00 AM 63 °F 50 °F 53% 29.87 in 6 mi North 4.6 mph - -   Partly Cloudy
3:20 AM 60.8 °F 50.0 °F 68% 29.86 in 6.2 mi North 5.8 mph - N/A   Scattered Clouds
3:50 AM 60.8 °F 50.0 °F 68% 29.86 in 6.2 mi North 6.9 mph - N/A   Scattered Clouds
4:50 AM 59.0 °F 50.0 °F 72% 29.86 in 6.2 mi North 4.6 mph - N/A   Scattered Clouds
5:20 AM 59.0 °F 50.0 °F 72% 29.86 in 6.2 mi North 5.8 mph - N/A   Scattered Clouds
5:50 AM 59.0 °F 51.8 °F 77% 29.83 in 6.2 mi North 5.8 mph - N/A   Partly Cloudy
6:20 AM 59.0 °F 51.8 °F 77% 29.86 in 6.2 mi North 6.9 mph - N/A   Partly Cloudy
6:50 AM 59.0 °F 51.8 °F 77% 29.86 in 6.2 mi North 6.9 mph - N/A   Partly Cloudy
7:20 AM 59.0 °F 51.8 °F 77% 29.86 in 6.2 mi NNW 6.9 mph - N/A   Scattered Clouds
7:50 AM 60.8 °F 51.8 °F 72% 29.86 in 6.2 mi North 6.9 mph - N/A   Scattered Clouds
8:20 AM 62.6 °F 51.8 °F 68% 29.86 in 6.2 mi North 5.8 mph - N/A   Scattered Clouds
8:50 AM 64.4 °F 51.8 °F 64% 29.86 in 6.2 mi NNW 5.8 mph - N/A   Scattered Clouds
9:20 AM 66.2 °F 51.8 °F 60% 29.86 in 6.2 mi Variable 5.8 mph - N/A   Scattered Clouds
9:50 AM 68.0 °F 50.0 °F 52% 29.86 in 6.2 mi Variable 5.8 mph - N/A   Scattered Clouds
10:20 AM 66.2 °F 50.0 °F 56% 29.86 in 6.2 mi NNW 6.9 mph - N/A   Scattered Clouds
10:50 AM 68.0 °F 50.0 °F 52% 29.86 in 6.2 mi NNW 5.8 mph - N/A   Scattered Clouds
11:20 AM 68.0 °F 48.2 °F 49% 29.89 in 6.2 mi NW 4.6 mph - N/A   Scattered Clouds
11:50 AM 69.8 °F 46.4 °F 43% 29.89 in 6.2 mi NW 4.6 mph - N/A   Scattered Clouds
12:20 PM 69.8 °F 48.2 °F 46% 29.86 in 6.2 mi WNW 5.8 mph - N/A   Scattered Clouds
12:50 PM 69.8 °F 50.0 °F 49% 29.86 in 6.2 mi WSW 9.2 mph - N/A   Mostly Cloudy
1:20 PM 69.8 °F 50.0 °F 49% 29.86 in 6.2 mi West 5.8 mph - N/A   Mostly Cloudy
1:50 PM 69.8 °F 48.2 °F 46% 29.86 in 6.2 mi NNW 9.2 mph 23.0 mph N/A   Mostly Cloudy
2:20 PM 69.8 °F 48.2 °F 46% 29.86 in 6.2 mi NNW 9.2 mph 23.0 mph N/A   Mostly Cloudy
2:50 PM 69.8 °F 48.2 °F 46% 29.86 in 6.2 mi NW 9.2 mph - N/A   Mostly Cloudy
3:00 PM 71 °F 47 °F 32% 29.87 in 6 mi NW 9.2 mph - -   Partly Cloudy
3:20 PM 69.8 °F 48.2 °F 46% 29.86 in 6.2 mi NNW 9.2 mph - N/A   Mostly Cloudy
3:50 PM 69.8 °F 46.4 °F 43% 29.86 in 6.2 mi NNW 6.9 mph - N/A   Mostly Cloudy
4:20 PM 69.8 °F 46.4 °F 43% 29.86 in 6.2 mi NNW 6.9 mph - N/A   Mostly Cloudy
4:50 PM 69.8 °F 48.2 °F 46% 29.89 in 6.2 mi Variable 6.9 mph - N/A   Mostly Cloudy
5:20 PM 69.8 °F 50.0 °F 49% 29.89 in 6.2 mi NNE 8.1 mph - N/A   Mostly Cloudy
5:50 PM 68.0 °F 48.2 °F 49% 29.89 in 6.2 mi North 8.1 mph - N/A   Mostly Cloudy
6:20 PM 68.0 °F 46.4 °F 46% 29.89 in 6.2 mi North 6.9 mph - N/A   Mostly Cloudy
6:50 PM 68.0 °F 48.2 °F 49% 29.89 in 6.2 mi NE 5.8 mph - N/A   Scattered Clouds
7:20 PM 68.0 °F 50.0 °F 52% 29.92 in 6.2 mi Variable 4.6 mph - N/A   Partly Cloudy
7:50 PM 68.0 °F 51.8 °F 56% 29.92 in 6.2 mi NNE 4.6 mph - N/A   Partly Cloudy
8:20 PM 66.2 °F 51.8 °F 60% 29.92 in - Variable 2.3 mph - N/A   Clear
8:50 PM 64.4 °F 50.0 °F 59% 29.95 in - North 3.5 mph - N/A   Clear
9:00 PM 64 °F 50 °F 51% 29.95 in 6 mi North 3.5 mph - -  
9:20 PM 64.4 °F 51.8 °F 64% 29.95 in - Variable 2.3 mph - N/A   Clear
9:50 PM 62.6 °F 50.0 °F 63% 29.95 in - NW 4.6 mph - N/A   Clear
10:20 PM 60.8 °F 50.0 °F 68% 29.95 in - North 4.6 mph - N/A   Clear
11:20 PM 59.0 °F 50.0 °F 72% 29.98 in - NW 2.3 mph - N/A   Clear
11:50 PM 60.8 °F 51.8 °F 72% 29.98 in - Variable 1.2 mph - N/A   Clear